Regional Weather Roundup
Issued by NWS

Home | Current Version | Previous Version | Text Only | Print | Product List | Glossary Off
Versions: 1 2 3 4 5 6 7 8 9 10 11 12 13 14 15 16 17 18 19 20 21 22 23 24 25 26 27 28 29 30 31 32 33 34 35 36 37 38 39 40 41 42 43 44 45 46 47 48 49 50

000
ASUS45 KPSR 310900
RWRAZ

PRELIMINARY ARIZONA REGIONAL HOURLY WEATHER ROUNDUP
NATIONAL WEATHER SERVICE PHOENIX AZ
200 AM MST SAT JAN 31 2015

NOTE: FAIR INDICATES FEW OR NO CLOUDS BELOW 12,000 FEET WITH NO
SIGNIFICANT WEATHER AND/OR OBSTRUCTIONS TO VISIBILITY.

AZZ001>003-036-311000-
NORTHWEST ARIZONA

CITY           SKY/WX    TMP DP  RH WIND       PRES   REMARKS
KINGMAN        CLOUDY    46  44  93 NE3       29.85F
$$

AZZ004>008-015-016-018-311000-
NORTH CENTRAL ARIZONA

CITY           SKY/WX    TMP DP  RH WIND       PRES   REMARKS
GRAND CANYON   CLOUDY    38  37  97 CALM      29.89S
PRESCOTT       CLOUDY    41  38  89 CALM      29.86F
FLAGSTAFF      LGT RAIN  36  34  92 SW5       29.88F WCI  32
PAYSON         FOG       43  43 100 CALM      29.90S VSB<1/4
$$

AZZ009>014-017-311000-
NORTHEAST ARIZONA

CITY           SKY/WX    TMP DP  RH WIND       PRES   REMARKS
WINSLOW        CLOUDY    43  41  93 E5        29.86F
SAINT JOHNS    CLOUDY    41  40  96 E10       29.87F
WINDOW ROCK    LGT SNOW  34  31  88 CALM      29.91F FOG
SHOW LOW       CLOUDY    36  32  87 SW7       29.91S WCI  30
$$

AZZ023-311000-
GREATER PHOENIX AREA

CITY           SKY/WX    TMP DP  RH WIND       PRES   REMARKS
PHOENIX        CLOUDY    56  53  90 E5        29.82S
LUKE AFB       MOCLDY    56  54  92 CALM      29.82F
DEER VALLEY    CLOUDY    54  52  93 N3        29.82F
SCOTTSDALE     CLOUDY    54  52  93 CALM      29.85S
$$

AZZ027-028-311000-
SOUTHWEST MARICOPA COUNTY AND PINAL COUNTY

CITY           SKY/WX    TMP DP  RH WIND       PRES   REMARKS
CASA GRANDE    CLOUDY    54  52  94 CALM      29.84S
GILA BEND      LGT RAIN  57  57 100 CALM      29.82F
$$

AZZ503-504-507>509-311000-
SOUTHEAST ARIZONA

CITY           SKY/WX    TMP DP  RH WIND       PRES   REMARKS
TUCSON         CLOUDY    54  52  93 SE5       29.86F
DAVIS-MONTHAN  DRIZZLE   53  53 100 SE5       29.84F
NOGALES        RAIN      48  45  89 SE5       29.87S FOG
SIERRA VISTA   LGT RAIN  46  46 100 CALM      29.88F VSB 1
DOUGLAS        LGT RAIN  47  45  93 SE3       29.89
SAFFORD        LGT RAIN  47  46  97 SE5       29.88F FOG
$$

AZZ020-021-025-026-031-311000-
SOUTHWEST ARIZONA

CITY           SKY/WX    TMP DP  RH WIND       PRES   REMARKS
YUMA           MOCLDY    59  55  87 W3        29.82F
$$

CAZ031-033-041-043-047-048-061-311000-
SOUTHERN CALIFORNIA

CITY           SKY/WX    TMP DP  RH WIND       PRES   REMARKS
DOWNTOWN L.A.  MOCLDY    59  55  87 CALM      29.86F
L.A. AIRPORT   PTCLDY    57  56  96 E3        29.86F
SAN DIEGO      MOCLDY    60  54  80 E3        29.89S
BURBANK        MOCLDY    56  54  93 SE3       29.86S
ONTARIO        MOCLDY    55  51  86 CALM      29.87F
RIVERSIDE      MOCLDY    54  51  90 CALM      29.87F
PALM SPRINGS   CLOUDY    58  51  78 CALM      29.85F
EL CENTRO NAS  PTCLDY    54  48  80 SW5       29.82F
IMPERIAL       PTCLDY    53  48  83 SW3       29.82S
BLYTHE         PTCLDY    57  52  83 N3        29.83F
NEEDLES        LGT RAIN  56  48  74 NW3       29.85F
$$

NVZ020-UTZ003-311000-
SOUTHERN NEVADA-UTAH

CITY           SKY/WX    TMP DP  RH WIND       PRES   REMARKS
LAS VEGAS      CLOUDY    49  46  90 S8        29.83F
SALT LAKE CITY CLOUDY    40  36  86 W8        29.96S WCI  34
$$

NMZ009-TXZ055-311000-
NEW MEXICO-WEST TEXAS

CITY           SKY/WX    TMP DP  RH WIND       PRES   REMARKS
ALBUQUERQUE    LGT RAIN  36  32  85 N6        29.98F WCI  31
EL PASO        LGT RAIN  44  40  85 N5        29.94F
$$


........................KEY........................
SKY/WX - SKY CONDITION/WEATHER
TMP    - TEMPERATURE IN FAHRENHEIT
DP     - DEW POINT IN FAHRENHEIT
RH     - RELATIVE HUMIDITY IN PERCENT
WIND   - DIRECTION AND SPEED IN MILES PER HOUR (MPH)
VRB    - VARIABLE WIND DIRECTION
PRES   - MEAN SEA LEVEL PRESSURE IN INCHES OF MERCURY
         F - FALLING PRESSURE   R - RISING PRESSURE
         S - STEADY PRESSURE
VSB    - VISIBILITY IN MILES
HX     - HEAT INDEX IN FAHRENHEIT
WCI    - WIND CHILL INDEX IN FAHRENHEIT
TC     - TEMPERATURE IN CELSIUS WHICH IS ALSO KNOWN AS
         TEMPERATURE IN CENTIGRADE
AFB    - AIR FORCE BASE
         LUKE AFB IS LUKE AIR FORCE BASE
         DAVIS-MONTHAN IS DAVIS-MONTHAN AIR FORCE BASE
NAS    - NAVAL AIR STATION
         EL CENTRO NAS IS EL CENTRO NAVAL AIR STATION
N/A    - NOT AVAILABLE



USA.gov is the U.S. government's official web portal to all federal, state and local government web resources and services.